Wind_Speed
37 40 46 48 46 45 44 43 42 41 41 40 38 36 34 33 32 31 30 29 28 28 28 28 28 27 27 28 28 28 29 30 31 32 34 35 36 37 38 40 41 43 46 48 50 53 55 57 59 61 63 65 66 67 68 68 68 68 68 68 67 67 67 67 67 68 69 71 72 73 74 76 77 77 79 81 82 85 87 88 91 93 94 95 96 97 97 97
38 39 42 46 46 45 44 43 42 42 41 39 37 36 34 33 32 30 29 28 28 29 29 29 29 28 28 28 27 28 29 30 31 32 34 35 36 38 39 41 43 46 48 50 53 55 57 59 61 63 64 65 66 66 67 67 66 65 64 64 64 64 64 65 66 67 69 70 71 72 73 74 75 76 77 79 80 83 84 86 90 92 95 97 99 100 100 100
37 37 38 42 44 44 44 44 43 43 41 39 37 35 34 32 31 30 28 27 27 27 28 29 28 28 27 27 27 28 29 30 31 32 34 36 37 39 41 44 46 48 50 52 54 56 58 60 62 63 64 64 64 64 63 63 62 62 61 61 61 62 62 64 65 66 67 68 69 70 70 71 72 73 74 76 78 80 80 83 87 90 94 98 100 102 103 104
37 37 37 40 43 44 44 44 43 41 40 38 36 35 34 32 31 30 28 26 25 26 27 28 27 27 26 27 28 29 30 31 32 33 35 37 39 41 44 46 49 51 52 54 56 58 59 60 61 62 62 62 61 60 59 59 59 59 59 60 60 60 60 61 62 63 64 65 65 65 66 67 67 68 71 73 75 78 79 81 84 87 91 95 99 102 104 106
36 38 39 39 41 43 43 43 42 40 39 37 36 35 34 32 31 30 28 26 25 26 28 28 27 27 27 29 30 30 31 32 33 35 37 40 42 44 46 49 50 52 54 55 57 58 59 59 59 59 58 57 56 56 56 56 56 57 58 58 58 58 57 58 59 59 60 60 60 60 62 63 64 65 68 70 73 76 78 80 83 85 88 91 95 99 102 105
36 39 40 39 38 40 43 43 41 40 39 38 36 35 34 33 31 30 28 27 25 27 29 29 29 29 30 30 30 31 32 33 35 37 40 42 44 46 48 50 52 53 55 55 56 57 57 56 55 54 54 53 53 53 54 54 54 54 54 54 54 54 54 54 55 55 56 56 56 58 59 61 63 64 66 69 71 74 77 80 82 84 86 89 91 94 98 101
36 39 40 40 38 38 40 41 40 40 39 37 37 35 34 33 31 29 28 27 26 27 28 30 31 30 30 30 31 32 33 35 37 39 42 44 46 48 50 51 53 54 54 54 54 53 53 51 51 50 50 50 51 51 51 52 52 52 52 51 50 50 51 51 52 53 54 54 55 57 58 62 64 65 66 69 71 74 77 79 81 83 85 86 88 90 92 95
37 40 39 40 40 37 36 36 38 39 39 37 37 35 33 31 29 28 28 27 28 29 29 30 31 31 30 31 32 33 35 37 39 41 43 45 47 49 51 52 52 52 52 51 50 49 48 47 47 47 47 48 48 48 48 48 49 50 50 49 48 49 49 50 51 52 54 55 57 60 61 64 66 67 69 71 73 76 78 79 80 81 83 84 85 86 88 90
38 41 39 40 41 37 34 35 36 38 39 38 36 34 31 29 28 27 27 27 28 30 29 29 30 30 31 32 33 34 36 38 40 42 44 46 48 50 50 50 50 49 48 47 46 45 44 44 44 44 44 45 46 46 47 47 47 48 48 47 47 48 50 50 52 54 56 59 62 64 66 68 69 70 73 74 76 77 78 79 79 80 80 81 81 82 83 84
39 41 40 40 41 38 35 35 36 37 38 36 34 31 28 27 26 25 25 25 25 28 29 29 29 30 31 32 34 35 37 39 41 43 45 47 48 48 48 47 47 45 44 43 42 42 41 41 41 41 42 43 45 46 46 47 48 48 49 49 48 50 54 55 57 59 61 64 67 69 70 73 74 75 77 77 77 78 79 79 79 79 78 78 78 78 78 78
38 42 40 39 39 39 37 34 35 37 36 33 32 30 26 24 24 23 22 23 25 29 29 29 29 30 31 33 35 37 38 40 42 44 45 45 45 45 44 43 42 40 39 39 39 38 38 39 39 40 41 43 44 45 47 48 49 50 51 52 53 55 59 62 63 65 67 69 71 73 74 77 79 80 81 81 81 82 81 81 79 78 77 75 74 73 73 73
36 41 40 39 38 38 37 35 34 35 35 33 31 28 24 24 24 22 20 22 26 29 29 29 30 31 32 34 36 37 39 40 42 43 43 42 42 41 40 39 37 36 36 36 36 36 36 37 38 40 41 43 44 46 47 49 50 53 55 57 58 59 61 64 66 68 70 72 74 77 78 80 82 84 85 86 86 86 85 84 81 78 75 73 71 69 68 68
37 40 40 39 38 38 37 35 34 35 35 31 24 21 22 24 24 23 23 25 27 29 30 31 31 32 33 35 36 37 39 40 40 40 40 39 39 37 36 35 34 33 33 33 33 34 35 36 38 40 41 43 45 46 48 51 54 56 58 58 59 59 61 64 67 69 71 73 74 78 81 83 85 88 89 90 91 92 91 88 84 79 74 71 68 66 64 63
35 38 39 38 38 39 39 38 38 38 34 25 18 17 19 21 22 23 26 27 28 30 30 30 31 32 33 34 36 38 38 38 37 37 37 36 34 33 32 31 31 30 30 30 31 33 35 37 38 39 41 43 44 47 50 53 55 56 56 57 58 60 62 63 66 69 71 74 76 79 82 85 87 89 92 93 95 97 97 93 87 80 73 68 65 62 61 60
32 34 36 37 38 39 40 41 41 36 30 22 19 19 18 18 19 21 25 27 28 28 28 28 30 31 33 35 36 36 35 35 35 35 34 32 30 30 29 28 28 27 28 29 31 33 35 36 38 40 42 43 45 48 51 52 52 53 54 56 58 60 61 63 66 69 72 75 78 80 82 85 88 91 93 95 97 100 101 98 90 82 74 68 63 60 58 57
30 29 31 34 37 39 40 39 35 30 26 22 20 18 16 17 18 19 21 22 24 25 27 29 30 32 33 34 34 33 33 33 33 31 29 28 27 27 26 26 25 26 28 30 31 33 35 37 39 41 42 45 48 49 50 51 52 54 55 57 58 59 62 64 68 71 74 75 78 81 83 86 90 93 96 98 99 101 103 101 94 85 78 71 66 61 58 57
35 32 32 33 35 37 37 32 27 24 23 22 21 20 20 21 21 21 22 23 25 27 30 30 31 32 33 32 31 31 31 30 28 27 26 25 25 25 24 23 24 25 27 29 30 32 34 37 39 40 43 47 50 50 50 51 51 52 54 58 61 62 63 65 68 72 75 76 78 81 84 87 91 95 97 98 99 100 101 101 97 89 81 76 70 65 61 58
40 40 37 33 31 34 35 30 25 23 22 21 21 22 22 22 23 25 26 27 28 30 30 30 31 31 30 30 30 29 28 25 24 23 23 24 23 22 22 22 23 25 26 27 29 31 34 37 39 42 46 48 49 49 50 50 51 52 54 57 62 65 66 67 69 71 74 77 78 79 84 87 89 92 93 94 95 97 98 99 97 91 84 79 74 70 66 62
41 44 41 34 29 30 33 31 26 23 23 22 22 21 22 23 24 25 26 28 29 29 29 30 30 28 28 28 27 25 23 21 21 21 22 22 21 20 21 22 23 24 25 27 30 33 35 38 41 45 47 47 47 49 51 53 54 55 56 58 62 67 70 70 71 72 74 76 77 79 82 85 86 87 88 90 92 92 92 94 94 90 83 77 74 71 68 66
42 44 42 37 33 32 31 30 27 25 24 23 22 22 22 23 24 25 26 27 28 29 29 29 27 26 26 25 23 21 19 19 19 20 20 19 18 19 20 20 21 23 25 28 31 33 36 40 43 45 45 46 49 52 55 56 57 57 59 60 63 67 71 71 72 74 75 76 78 80 82 83 83 84 87 89 90 90 90 91 91 90 84 78 73 69 67 65
42 41 38 36 35 33 29 26 26 25 24 24 23 23 23 24 25 26 27 27 28 28 27 25 24 24 23 21 19 17 17 17 17 18 17 17 17 17 18 19 21 23 27 30 32 34 38 41 43 45 47 49 53 56 58 59 59 60 62 63 64 66 70 73 74 76 78 80 81 81 81 82 82 84 88 90 90 90 90 91 92 92 89 83 75 70 66 63
40 37 35 33 32 30 26 23 22 23 23 22 22 23 24 25 26 27 27 27 26 24 23 22 22 20 19 17 15 14 15 16 15 15 14 15 16 16 18 19 21 25 27 29 31 34 37 40 43 45 48 51 54 57 59 61 63 64 64 65 65 64 67 72 75 77 81 84 83 81 79 80 83 86 88 89 91 92 92 93 94 94 93 88 80 73 68 65
40 37 35 31 28 25 21 18 18 19 19 20 22 23 24 25 26 25 24 23 21 20 20 19 18 16 14 13 13 13 14 14 13 13 13 14 15 16 18 19 21 25 27 28 30 33 36 40 43 45 48 51 53 56 60 63 66 67 66 66 67 68 68 70 74 78 82 84 83 83 82 81 83 85 87 89 92 94 94 95 96 96 96 93 87 79 72 68
39 37 33 27 21 18 16 15 16 16 18 19 20 21 22 22 21 20 18 18 18 18 17 16 14 12 11 11 12 12 13 13 12 12 12 13 14 16 17 19 22 25 27 28 30 33 37 40 42 45 48 50 52 56 60 64 66 67 68 68 70 72 73 73 75 79 82 82 83 85 84 84 84 83 85 88 91 94 96 96 97 97 97 96 92 85 76 70
36 33 29 23 18 15 15 15 16 16 17 17 17 17 17 16 16 16 16 16 16 15 14 12 11 9 9 10 11 12 13 13 12 12 12 12 13 15 17 20 23 25 25 27 30 34 37 40 42 45 48 51 53 56 60 62 65 68 70 72 74 75 77 78 79 80 81 81 83 83 82 84 86 85 86 89 91 94 96 97 98 98 97 96 94 90 83 76
32 30 26 21 18 16 16 16 15 15 15 14 14 14 14 14 14 14 14 14 13 12 10 9 8 7 9 10 10 12 12 12 12 11 11 11 13 15 17 20 23 23 25 28 31 35 38 40 42 45 48 52 54 56 58 61 64 69 72 75 77 79 80 82 82 81 80 81 84 85 85 86 86 87 89 90 92 95 96 98 99 99 98 97 96 95 90 83
29 28 25 22 19 18 17 16 15 14 13 13 13 12 12 13 13 13 13 11 11 9 7 6 6 8 9 10 11 11 11 10 11 11 11 12 13 14 17 20 23 24 26 29 33 36 38 41 43 45 48 52 54 56 57 59 63 68 72 75 78 80 82 83 83 82 81 81 83 86 89 90 89 89 91 93 95 97 99 101 101 101 100 99 99 98 95 90
29 28 26 23 19 18 17 16 14 13 12 12 12 12 12 12 12 12 11 9 8 6 5 5 7 8 9 10 10 10 9 9 9 10 11 12 13 14 17 20 23 25 28 31 35 37 39 42 44 46 49 53 55 56 57 60 63 67 71 75 77 79 81 82 83 83 83 82 84 88 91 93 93 94 96 97 99 101 103 104 104 103 103 103 103 102 99 95
29 27 25 22 19 18 17 15 14 12 12 11 11 11 12 12 11 10 9 7 6 4 4 6 8 9 9 9 9 8 8 8 9 11 12 12 14 16 18 20 23 27 31 34 37 39 41 43 45 48 51 54 56 58 60 62 64 66 69 72 76 79 81 82 83 85 86 85 86 90 94 96 98 100 102 102 102 103 105 105 105 106 106 106 106 104 102 99
27 26 24 21 19 17 15 14 13 12 12 11 11 12 11 11 10 9 7 5 4 4 5 8 9 9 8 8 7 7 7 8 9 10 11 12 14 16 20 23 27 30 34 37 39 40 42 44 47 50 52 54 58 61 62 63 65 66 67 70 75 78 80 82 83 85 88 88 88 93 96 98 101 104 105 106 106 106 105 105 106 107 107 106 106 104 103 100
26 25 23 20 18 15 14 13 13 12 12 12 12 12 11 10 9 7 5 5 5 6 7 9 9 8 7 6 6 6 7 9 10 11 12 15 18 21 24 27 30 32 34 36 38 40 42 45 48 51 53 55 58 61 62 64 65 67 68 71 73 76 78 82 84 87 90 91 92 93 95 97 103 107 107 107 108 107 106 107 108 107 106 106 106 106 104 102
26 23 21 19 17 14 14 13 13 13 12 12 12 11 11 10 8 6 5 5 6 7 8 9 8 7 5 5 6 7 9 10 12 13 15 18 21 23 25 27 28 30 32 34 38 41 43 46 48 51 53 55 57 61 63 65 67 69 70 70 71 73 76 79 85 89 92 94 93 92 93 98 104 107 107 108 107 107 109 110 109 108 108 109 109 109 108 106
25 22 20 18 16 15 15 14 14 13 12 12 12 12 12 9 7 6 6 7 7 8 8 8 7 6 5 6 7 8 10 11 13 15 17 19 21 22 24 26 28 31 33 36 39 42 44 46 48 50 53 56 58 62 65 67 69 71 72 73 73 75 78 82 87 90 92 94 94 93 96 101 104 105 107 108 109 110 111 112 112 113 114 115 115 114 112 110
24 21 19 18 16 16 15 15 14 13 12 12 12 12 11 8 7 8 8 8 9 9 8 8 7 7 7 7 7 8 10 11 13 15 18 19 21 23 25 28 31 33 36 38 41 43 46 48 50 52 55 58 61 64 67 69 71 74 76 78 79 80 83 87 89 91 93 94 95 97 101 104 106 106 107 109 111 113 114 115 117 119 121 120 119 117 115 112
23 21 20 18 17 16 16 15 14 13 13 13 13 12 10 8 9 9 9 9 9 9 9 9 8 7 7 7 7 8 10 11 13 16 19 21 22 24 26 29 32 35 37 40 42 44 47 50 53 55 57 61 64 66 69 72 74 77 79 81 82 83 85 87 89 92 95 96 97 100 103 105 105 105 107 111 114 116 119 121 122 124 125 124 121 119 117 114
23 21 20 18 17 17 16 15 14 14 14 14 13 11 10 9 10 10 10 9 10 10 9 9 8 8 7 7 7 7 9 11 14 17 19 21 23 24 27 29 32 35 38 40 43 45 48 51 54 57 59 61 64 67 70 74 77 79 80 82 84 85 85 86 88 92 95 97 99 99 99 100 102 105 109 113 116 118 121 123 125 126 127 126 124 122 119 117
23 21 20 19 18 17 16 15 14 15 15 14 13 11 11 11 11 11 10 10 11 10 10 10 9 8 7 6 6 7 9 11 15 17 19 21 23 26 28 31 33 35 38 41 44 47 50 53 56 58 60 61 63 67 71 74 77 79 82 83 84 85 86 87 89 91 93 95 98 100 100 100 102 106 110 112 114 117 120 123 125 127 127 127 126 124 122 120
23 21 20 19 18 17 16 16 16 16 15 14 12 12 12 12 12 12 11 11 11 11 10 9 8 8 7 7 7 8 9 12 15 17 20 22 24 27 30 32 34 36 38 41 45 48 51 54 56 59 61 63 64 67 69 71 75 79 82 84 85 86 88 89 90 92 93 95 97 100 102 103 104 107 109 110 112 115 119 122 125 126 127 128 127 126 125 123
23 22 21 20 19 18 17 17 17 16 15 14 13 13 12 12 12 12 12 12 12 11 10 9 8 8 8 8 8 9 10 12 15 18 21 23 26 29 31 34 35 37 39 41 45 49 51 54 57 59 62 64 66 68 70 72 75 78 81 84 86 88 89 90 91 93 95 97 98 100 102 105 106 107 108 110 113 117 120 122 124 127 129 129 129 129 128 127
23 21 20 20 19 19 18 18 17 16 15 13 13 13 13 13 13 13 13 13 12 12 10 9 9 9 9 9 10 11 12 14 16 19 23 25 28 30 32 34 36 38 39 42 45 49 52 55 57 60 62 64 66 69 72 75 77 79 82 84 87 89 90 90 91 93 96 98 100 101 102 104 106 107 109 112 116 119 121 123 125 128 130 131 131 132 131 130
22 21 21 21 20 19 18 18 16 15 14 14 14 14 13 13 14 14 14 14 13 12 11 10 10 10 10 11 11 12 14 16 18 22 24 26 28 30 32 34 36 38 40 42 45 48 51 55 58 60 62 65 68 70 73 76 78 80 83 85 88 90 91 91 92 94 96 98 101 102 103 104 106 109 112 115 118 120 121 123 125 128 131 132 132 133 134 133
23 22 22 22 21 20 19 18 16 15 15 15 14 14 14 14 14 15 16 15 14 13 13 12 12 11 12 12 13 14 15 18 21 23 25 26 28 30 32 34 37 39 41 43 45 47 51 54 57 59 62 64 67 70 72 74 77 80 82 85 88 90 92 92 92 94 95 97 99 102 104 106 108 111 113 115 117 119 121 122 124 127 131 132 133 134 135 135
24 24 23 22 21 20 19 18 17 16 16 16 15 15 15 15 15 16 16 16 15 15 14 14 13 13 13 14 14 15 17 20 23 24 25 27 29 31 33 35 38 40 42 44 46 48 50 52 55 58 60 62 65 67 70 72 75 78 81 84 87 90 92 93 93 93 94 96 97 100 104 106 108 110 112 114 116 118 120 121 123 126 130 133 134 134 135 136
25 25 24 23 22 21 20 19 18 18 17 17 16 16 15 15 16 17 17 17 16 16 16 15 14 14 14 15 16 17 19 22 24 25 27 29 30 32 34 37 39 41 44 46 48 50 52 53 56 58 60 62 64 66 69 72 75 79 82 85 88 90 92 93 93 93 94 96 98 100 103 105 106 108 110 112 114 116 118 120 122 124 129 132 134 135 135 136
25 24 23 22 22 21 20 20 19 19 19 18 17 17 16 15 16 17 17 17 17 17 17 16 15 15 16 16 17 18 21 23 25 27 28 30 32 33 35 38 40 43 45 48 50 53 55 56 58 61 63 65 67 69 72 74 78 81 83 85 87 89 92 93 94 94 94 96 99 100 101 103 104 106 108 110 112 114 116 119 121 123 127 131 134 135 136 136
25 24 23 22 22 21 21 20 20 20 19 19 18 17 16 15 16 17 17 17 17 17 18 17 17 17 17 18 19 20 22 24 27 29 30 32 33 35 37 39 41 44 46 48 51 54 57 59 61 63 65 68 70 72 74 76 79 81 84 85 87 88 91 93 95 95 94 94 97 99 100 102 103 104 106 108 110 112 114 117 119 121 125 130 133 135 135 136
24 23 22 22 22 22 22 21 21 20 20 19 19 18 16 16 16 17 17 17 17 17 18 18 19 19 19 20 21 22 24 26 29 31 32 34 35 36 38 40 42 44 46 48 50 53 56 59 62 63 66 68 70 72 74 76 78 81 83 85 87 87 89 92 94 95 94 94 95 99 101 102 103 104 105 107 109 111 114 116 118 120 124 128 132 134 135 135
23 23 22 23 23 23 22 22 22 21 21 20 19 18 17 16 17 17 18 17 18 18 19 20 21 21 22 22 23 25 26 28 30 33 34 35 36 37 39 41 42 44 45 47 50 53 56 59 62 64 66 68 70 72 74 76 78 81 83 85 86 86 88 90 93 94 94 94 94 96 99 101 103 104 105 107 109 111 113 116 118 120 123 127 131 133 134 134
22 23 23 23 24 24 24 23 23 22 22 21 20 19 18 17 17 18 18 18 19 19 20 21 23 24 24 25 26 27 29 31 33 35 36 37 38 39 40 41 42 44 45 47 49 52 55 58 61 64 66 68 70 72 73 75 77 80 83 84 86 86 87 88 91 93 93 93 93 95 97 100 102 104 105 107 109 111 113 115 118 120 123 126 130 132 133 133
22 23 24 24 25 25 25 24 24 23 23 23 21 20 20 19 19 19 20 20 20 21 22 23 24 25 27 27 28 30 31 33 35 37 38 38 39 40 41 42 43 45 46 47 49 52 54 57 60 63 65 66 68 70 72 74 76 79 82 84 85 87 87 87 90 92 93 92 92 94 96 99 102 104 106 106 108 110 111 114 117 120 122 125 129 131 132 132
23 24 24 25 26 26 26 26 25 25 24 24 23 22 21 21 20 21 21 21 21 22 23 24 26 27 29 30 31 32 34 35 37 38 39 40 40 40 42 42 44 45 47 48 50 52 54 56 59 62 64 65 66 67 70 72 75 78 81 83 85 86 87 87 89 92 93 93 93 94 96 98 100 103 104 105 106 108 110 112 116 119 122 125 128 130 131 131
24 25 25 26 27 28 27 27 27 26 25 25 24 24 23 23 23 22 22 22 23 24 25 26 27 29 30 32 33 34 35 37 38 39 40 41 41 41 42 43 44 46 48 49 51 53 55 57 59 61 63 65 66 67 70 72 74 76 80 83 85 85 86 87 88 91 93 94 93 94 96 98 99 101 103 104 105 107 109 111 114 118 121 125 127 129 130 131
Wind_Direction
192 192 193 192 193 195 197 201 204 208 211 214 216 218 220 223 226 231 235 239 243 246 248 251 253 256 260 263 267 271 274 276 277 277 277 277 278 279 280 282 284 285 287 288 289 290 292 293 294 295 296 297 297 297 297 297 297 298 298 298 298 298 299 299 299 299 299 298 298 297 297 296 295 294 292 291 290 289 289 287 286 285 284 283 282 280 279 277
196 194 193 193 193 195 198 202 206 210 213 215 217 218 221 224 228 232 237 242 245 248 250 252 254 258 262 266 270 274 276 277 278 277 278 279 280 282 283 285 287 288 289 291 292 294 296 297 298 298 299 299 299 299 300 300 301 301 301 302 303 304 305 304 303 302 301 300 299 298 296 295 293 291 289 288 287 285 285 284 283 284 283 283 282 281 281 279
199 193 191 194 195 196 199 203 208 211 213 215 217 219 222 225 229 234 239 243 246 249 251 253 255 259 264 269 272 275 277 278 278 279 280 281 283 284 286 288 289 290 292 294 296 298 299 300 300 300 300 301 301 302 303 304 305 306 307 307 308 309 307 305 302 300 299 298 297 295 293 291 290 289 287 286 285 284 283 282 282 282 282 282 282 281 281 280
200 194 188 192 197 198 201 205 208 211 214 217 218 220 222 226 230 235 239 243 245 249 252 254 258 262 267 271 273 275 276 278 279 281 283 284 285 287 288 289 291 293 296 298 300 301 301 301 301 302 304 305 306 307 308 309 310 311 311 311 310 309 305 302 300 298 297 296 294 292 291 289 288 289 288 287 286 286 284 283 282 281 280 280 280 280 280 280
200 196 189 190 196 201 204 207 210 212 215 218 220 222 224 227 231 235 239 242 246 252 256 258 261 264 269 272 273 276 277 279 282 284 286 287 288 289 291 293 296 298 300 301 302 302 303 304 306 307 308 309 310 312 313 313 313 312 311 310 309 307 303 300 298 297 296 294 293 292 292 292 291 291 292 292 292 291 289 287 285 283 282 281 280 280 279 279
199 197 193 189 193 201 207 210 212 213 216 219 221 224 226 228 232 235 239 244 250 256 259 261 263 265 269 272 274 277 280 283 285 287 288 289 291 293 295 297 300 301 303 303 304 306 308 309 310 311 313 314 316 316 315 313 312 311 309 309 308 306 303 301 299 298 297 297 297 297 298 299 298 298 299 299 299 297 295 293 291 288 286 284 282 281 279 278
198 197 194 191 193 199 207 211 214 216 217 219 222 225 227 230 233 237 242 247 252 256 260 263 264 266 269 272 276 279 282 285 286 287 289 291 294 296 299 301 302 304 306 307 309 311 312 313 315 317 318 318 317 315 313 313 312 311 311 310 309 307 305 303 303 303 304 304 306 306 308 310 309 307 307 306 306 304 302 299 296 293 291 288 285 283 280 278
196 196 194 193 195 199 204 210 215 219 219 220 224 226 228 231 236 240 245 249 253 256 259 263 265 268 272 275 278 282 284 285 286 288 291 295 298 300 302 304 306 308 310 312 314 315 317 319 320 320 318 317 315 314 313 314 314 314 314 313 313 312 310 310 311 312 314 315 317 318 318 319 318 316 317 316 314 313 310 306 303 299 296 293 289 286 283 279
194 194 194 194 196 198 203 209 213 219 220 219 223 226 230 235 239 244 248 251 256 258 257 260 265 269 274 277 280 282 283 285 288 292 296 299 301 303 305 308 310 312 314 317 318 320 322 322 321 319 317 316 316 316 317 318 319 319 319 319 320 320 320 320 321 323 325 327 327 327 327 327 325 325 325 324 322 320 317 313 309 305 302 298 295 291 287 283
193 192 193 195 197 197 204 211 214 219 220 219 221 225 229 235 240 244 248 250 256 258 257 261 267 271 275 277 280 281 284 288 293 297 300 302 305 307 309 311 314 316 319 321 322 323 323 321 320 318 318 319 321 323 325 326 327 327 328 329 330 331 331 332 332 333 333 334 334 334 334 333 332 331 330 328 327 325 322 319 315 312 308 305 301 296 292 288
192 192 191 194 197 199 204 211 218 222 223 221 221 222 226 233 237 242 248 251 256 259 260 263 268 272 275 278 280 284 289 294 299 301 303 305 307 309 312 315 318 320 322 323 325 323 321 320 320 321 324 326 329 331 332 333 334 335 337 337 338 340 342 341 340 339 339 339 339 338 338 337 336 335 334 333 332 330 328 324 321 317 314 310 305 301 296 292
189 193 192 193 196 199 203 209 217 224 225 224 221 221 225 232 236 239 244 249 256 262 263 264 268 273 276 279 284 289 295 298 301 303 305 308 309 312 315 319 321 323 324 325 324 322 321 322 325 329 331 333 335 337 338 339 340 342 343 344 345 346 347 345 343 342 342 342 342 341 341 340 339 338 338 337 337 336 334 331 327 323 319 314 310 305 301 296
186 192 194 195 196 200 203 208 216 222 224 222 221 223 228 234 238 241 244 248 256 264 266 268 271 275 279 284 290 295 298 301 303 306 308 309 311 316 319 323 324 325 326 325 324 325 326 329 333 336 337 340 341 342 343 344 346 348 348 349 350 350 351 348 345 344 343 343 344 343 343 343 342 341 341 340 340 340 339 336 333 329 324 319 314 309 305 301
187 192 194 195 198 202 204 208 214 220 221 222 223 224 229 236 242 248 252 254 260 265 269 272 275 278 285 291 296 299 301 304 306 307 308 311 316 320 323 325 326 325 326 326 328 331 332 336 340 341 343 344 345 346 349 351 353 353 353 352 353 353 353 350 347 346 345 345 346 346 345 344 344 343 343 342 343 343 342 340 337 333 328 323 318 313 309 306
189 191 193 197 202 206 207 210 215 220 223 224 225 225 230 238 244 253 259 261 265 269 271 274 279 286 293 297 299 302 304 305 306 307 311 316 321 324 325 326 326 327 328 331 334 336 340 344 345 345 346 346 348 352 355 356 356 356 355 355 356 356 354 352 350 348 348 349 348 348 347 346 345 344 345 345 345 345 344 343 340 336 332 328 323 319 314 310
184 188 196 200 206 210 210 213 216 219 220 218 218 218 223 229 237 250 259 263 267 270 273 279 287 294 298 300 302 303 304 304 307 311 316 321 324 326 327 328 330 333 335 338 342 346 348 348 348 348 349 351 355 358 360 0 359 359 359 359 359 358 356 355 353 351 351 351 351 349 348 347 346 346 347 347 346 346 346 346 344 340 337 333 329 325 321 316
178 182 197 205 210 212 210 208 206 206 207 206 211 213 218 227 236 246 254 260 266 272 280 287 294 298 300 301 301 302 303 307 312 317 321 324 326 327 329 332 335 338 341 347 351 351 349 348 350 351 355 360 3 3 4 4 3 2 1 1 0 360 359 357 356 354 352 352 352 350 348 349 349 349 348 348 347 347 347 348 347 343 340 337 334 330 327 322
180 180 191 201 212 216 209 202 197 198 202 205 213 220 229 238 245 251 257 264 271 279 286 293 297 299 299 298 300 303 308 313 317 321 323 324 325 327 332 337 341 346 350 352 351 350 351 354 356 359 4 7 6 5 3 2 2 1 1 3 3 2 1 360 358 356 354 354 353 351 351 351 352 351 349 348 348 348 348 350 350 347 344 341 338 335 331 328
185 185 190 192 204 214 207 202 204 206 208 213 220 228 238 245 251 257 264 271 277 283 290 295 297 296 296 298 303 308 312 317 322 324 323 322 327 332 340 346 350 352 353 353 356 360 3 4 6 8 9 8 5 3 2 3 3 2 3 4 6 5 3 2 360 358 357 355 353 354 354 354 353 350 348 348 348 348 349 352 353 352 348 344 341 338 335 332
189 191 195 195 203 213 209 207 211 213 215 220 226 233 241 248 256 262 268 274 280 286 291 293 293 293 296 301 305 309 315 322 325 321 320 324 331 339 347 352 351 352 357 3 9 12 11 10 11 11 10 7 6 6 5 6 5 5 5 6 8 7 5 3 2 1 359 357 356 357 357 356 352 349 348 349 348 349 351 353 356 356 353 349 344 341 338 335
193 195 199 202 209 217 217 215 216 218 221 225 231 238 244 251 258 264 269 275 282 287 288 289 291 295 299 302 306 314 322 324 320 319 324 331 336 343 350 353 355 3 12 17 17 15 13 12 11 10 9 9 9 8 7 7 6 7 7 7 8 8 6 5 4 3 1 1 0 358 358 356 350 349 350 350 349 350 353 355 357 359 358 354 349 345 342 339
194 196 198 203 210 217 220 218 217 219 223 228 234 240 246 253 259 265 271 277 281 283 285 288 292 297 301 305 313 322 324 320 318 323 330 333 338 346 353 360 7 14 19 18 16 14 12 11 9 9 9 9 9 8 8 7 7 8 8 7 7 8 8 6 5 5 4 4 2 358 357 354 351 352 353 351 351 352 354 357 359 0 0 359 355 350 347 344
194 196 198 203 209 216 219 215 215 217 221 228 234 241 248 255 261 267 271 274 276 279 284 289 294 297 304 313 320 321 320 316 316 321 327 332 340 349 360 7 12 15 15 13 10 9 9 9 8 7 8 9 8 8 8 8 8 8 8 7 6 7 8 8 7 7 7 5 2 359 356 354 354 354 353 353 353 354 356 359 0 1 2 1 359 355 352 349
193 195 197 199 201 206 206 203 205 210 217 226 235 244 250 255 260 264 267 270 275 281 285 288 294 300 312 318 317 315 312 310 311 319 330 340 348 356 6 11 11 10 8 6 4 4 5 6 6 6 6 7 7 7 8 8 7 7 7 7 7 7 7 8 8 8 7 4 3 1 357 356 357 356 354 355 355 356 359 0 1 1 2 3 2 360 356 353
190 191 192 189 185 185 185 189 197 206 216 227 235 242 245 250 254 259 266 272 277 281 282 289 300 307 314 313 307 304 302 306 316 328 343 351 354 2 9 10 7 4 1 0 360 1 3 5 5 6 5 5 6 8 8 7 6 6 7 7 7 8 8 8 9 8 6 4 3 2 358 359 359 357 357 358 358 359 1 1 1 2 3 3 4 3 0 357
184 183 180 175 173 178 183 189 198 207 217 224 230 235 240 247 254 263 271 274 276 277 283 296 306 303 305 303 297 299 304 314 328 342 352 354 356 3 6 3 0 357 355 355 358 1 4 5 5 5 4 5 6 7 7 6 6 6 7 7 7 8 8 9 8 7 5 4 4 3 2 2 1 0 1 0 0 2 2 3 3 3 3 3 4 5 4 1
175 174 171 168 172 183 187 192 200 208 215 220 227 233 242 252 261 269 272 271 270 274 286 299 295 290 292 295 295 300 310 325 339 350 352 351 355 359 359 357 354 351 351 355 1 4 5 5 5 4 4 4 4 5 5 6 7 6 6 7 7 7 8 8 7 6 6 5 5 5 6 5 4 3 3 3 3 3 4 5 5 4 3 4 5 6 6 4
169 171 171 169 176 187 190 196 204 209 214 222 231 239 249 260 267 269 267 264 265 270 282 279 277 282 286 291 298 306 319 332 343 350 349 351 351 348 349 350 350 350 353 358 4 5 4 4 4 4 4 4 3 3 4 5 6 7 7 7 6 6 7 7 7 6 6 6 6 7 8 7 6 6 5 6 6 6 7 7 6 5 4 5 6 6 6 6
170 172 171 171 181 190 194 200 205 211 218 226 236 247 257 264 264 262 258 256 255 253 263 266 270 279 285 292 302 313 326 338 345 349 352 352 347 344 344 344 347 354 359 2 5 5 4 4 4 5 5 5 3 3 4 5 5 7 7 6 6 6 5 6 6 6 7 7 8 8 9 9 9 9 9 8 9 10 10 9 8 6 6 6 6 6 6 6
171 172 172 177 187 192 196 202 208 216 225 233 243 253 260 259 255 252 245 240 232 233 254 265 267 275 285 295 307 320 333 339 343 346 348 345 343 343 343 345 351 359 4 5 5 4 4 4 5 5 5 5 4 4 4 4 5 6 7 7 7 6 4 4 5 7 7 8 9 10 10 10 11 12 12 11 11 11 11 10 9 8 8 7 7 7 7 7
172 174 177 182 186 191 199 207 215 222 229 239 249 254 254 247 243 237 225 221 221 230 250 258 263 275 287 294 305 317 324 326 327 329 331 336 344 349 351 354 358 2 4 4 3 3 4 5 5 5 5 5 5 3 3 4 4 5 5 7 7 5 4 3 4 6 8 9 10 10 9 10 12 13 13 13 12 12 11 11 11 10 9 8 8 8 8 7
175 177 179 182 185 194 204 212 221 227 234 243 249 248 242 234 228 217 210 213 221 232 244 253 264 276 284 288 296 306 315 320 323 329 338 348 354 357 358 359 0 2 3 4 4 5 5 5 5 4 4 4 4 3 3 3 4 4 5 5 5 5 5 4 5 6 8 9 10 9 9 11 12 13 12 13 13 13 13 13 12 11 10 9 9 9 8 8
175 177 180 182 188 199 208 217 225 231 238 243 242 238 231 222 210 203 207 214 223 234 241 250 263 270 273 283 294 307 319 325 332 341 350 356 357 357 357 359 0 2 3 5 5 4 3 3 3 2 2 2 3 3 3 3 3 4 4 3 4 5 5 5 6 6 7 9 9 8 10 11 11 12 12 12 13 14 14 13 12 12 11 11 10 9 9 9
174 178 183 187 195 204 212 221 227 233 238 237 233 229 222 208 197 202 209 215 224 233 238 249 260 264 269 279 295 312 323 332 342 351 356 357 357 357 359 1 2 3 3 3 3 2 2 1 1 1 2 2 3 3 3 3 3 3 3 3 3 4 5 5 5 5 6 7 8 9 10 10 10 10 11 12 13 14 14 14 14 13 13 13 12 10 9 9
176 182 188 194 203 211 217 223 228 231 230 226 224 220 211 199 197 204 210 215 225 232 239 249 256 261 268 281 300 317 330 342 351 356 357 358 358 360 1 2 2 1 1 1 1 1 1 0 0 1 2 2 2 2 3 3 3 3 4 3 2 3 5 5 4 4 5 6 8 9 9 9 9 9 10 12 13 14 14 14 14 14 14 14 13 12 10 9
181 186 193 201 209 214 218 224 228 227 222 219 218 212 202 198 200 204 209 218 226 232 240 248 253 260 269 284 303 320 336 350 356 357 357 356 357 359 360 360 360 359 359 359 359 359 360 359 360 0 1 2 2 2 3 3 3 3 3 3 3 2 3 4 4 4 4 5 6 7 8 8 8 8 10 11 12 12 14 14 14 14 14 14 13 13 11 10
186 191 198 206 211 215 219 222 223 222 219 216 213 204 199 200 202 204 209 219 226 233 241 247 253 261 271 285 303 321 340 351 355 354 353 353 354 355 355 355 357 357 357 358 358 358 359 359 359 360 0 1 2 3 3 3 2 2 2 3 2 2 2 3 4 4 4 5 5 5 6 6 7 8 9 10 11 11 12 13 14 14 14 14 13 13 12 11
190 196 202 207 211 214 217 215 214 215 216 213 208 203 201 202 203 206 213 222 228 234 243 248 253 262 271 283 297 317 337 347 350 350 349 350 350 350 351 352 353 355 356 357 357 357 358 358 358 359 360 0 2 3 3 3 2 2 2 2 2 2 1 2 2 3 3 4 5 5 4 5 6 8 8 8 10 11 11 12 13 13 13 13 13 13 13 12
193 199 204 208 211 213 213 210 210 212 211 208 204 203 205 205 206 211 219 224 229 236 244 251 256 262 271 282 295 311 328 339 343 345 345 345 345 346 347 349 350 352 354 356 356 356 356 356 357 358 359 359 0 1 1 2 3 2 1 1 1 1 1 1 1 2 2 2 4 5 4 4 5 6 6 7 9 10 10 11 11 12 12 12 13 13 13 13
196 201 206 208 209 209 208 209 211 212 210 206 204 204 206 208 210 216 222 225 232 239 247 255 261 266 274 283 296 310 322 332 338 340 341 341 342 344 345 347 349 350 352 354 355 355 355 355 356 357 358 358 359 360 0 1 1 2 1 1 1 1 1 0 360 1 1 1 2 3 4 4 4 5 6 7 8 9 9 9 10 11 11 11 12 12 13 13
199 204 206 206 205 204 205 207 210 210 209 207 207 208 209 211 215 219 223 227 235 244 252 260 266 270 278 287 299 312 322 330 336 338 339 340 341 343 344 346 347 349 350 352 353 354 354 354 355 356 357 358 358 358 359 359 359 0 1 0 0 1 0 360 359 360 1 0 360 1 3 4 4 4 6 7 8 8 8 8 9 9 10 10 10 11 12 12
201 204 205 203 201 202 203 205 207 208 208 209 211 212 213 216 221 223 225 230 239 248 257 264 269 274 283 293 302 313 323 330 335 337 338 340 341 343 344 345 346 347 348 349 351 353 353 353 354 355 356 357 357 357 358 359 359 359 0 0 360 0 0 360 359 358 359 0 359 359 1 3 3 4 5 6 6 7 7 7 8 8 8 9 9 10 11 12
202 202 202 201 201 202 202 204 205 207 209 212 214 217 219 223 226 225 227 234 244 254 262 266 270 276 287 296 304 314 323 329 334 336 338 340 341 342 342 343 344 345 346 347 348 351 352 353 353 354 355 355 355 356 356 357 359 359 360 360 360 360 360 359 359 357 357 358 359 359 360 2 3 3 4 5 5 6 6 6 7 7 7 8 8 9 10 10
201 200 200 201 201 202 202 203 205 207 211 215 219 222 225 228 229 228 230 238 249 258 264 267 270 278 289 298 306 315 323 328 332 334 336 338 339 340 340 341 342 343 344 345 346 348 350 352 353 353 354 354 354 355 356 357 358 359 359 360 0 359 359 358 358 357 356 356 358 359 359 0 2 3 3 4 4 5 5 5 5 6 6 7 7 8 9 9
199 200 202 204 204 203 203 204 206 209 212 218 222 226 230 231 232 232 234 241 251 260 265 268 270 279 290 299 306 314 322 327 330 331 333 335 337 338 338 339 340 341 343 344 345 347 348 350 351 352 352 353 353 354 356 356 357 358 358 359 359 359 357 357 357 357 356 355 357 358 359 360 1 2 3 3 3 4 5 5 4 5 5 6 6 7 7 8
200 202 204 206 206 205 205 207 209 212 216 220 225 229 231 233 235 236 237 244 254 262 266 269 271 278 289 298 305 312 318 323 326 328 330 332 334 336 337 337 339 340 342 344 345 346 347 348 350 351 351 351 352 353 355 356 356 357 357 358 358 358 356 356 356 356 356 355 355 356 358 359 0 1 2 2 3 4 4 4 4 4 4 5 5 6 6 7
202 205 206 207 208 209 209 210 212 216 220 224 228 231 233 236 239 239 240 247 257 264 269 273 275 279 287 296 303 309 314 319 323 325 327 328 331 333 334 335 337 339 342 344 345 346 346 347 348 349 350 350 351 352 353 354 355 356 356 356 356 356 355 355 355 355 355 354 354 355 356 357 359 0 1 2 3 3 4 4 4 3 3 4 4 5 6 6
205 208 209 211 211 211 211 213 216 219 224 228 232 234 237 239 242 242 244 251 258 266 272 277 280 283 287 294 301 306 310 314 318 321 323 325 327 329 331 333 335 338 341 343 344 345 346 346 346 348 349 349 350 350 351 353 354 354 355 355 354 354 355 354 354 354 354 353 354 354 354 356 357 359 0 2 3 3 3 3 3 3 3 3 4 4 5 5
208 210 212 214 214 214 214 216 219 223 227 232 236 238 241 244 246 247 249 254 261 268 273 279 283 286 290 294 299 304 307 311 314 317 320 322 324 326 328 330 333 336 339 341 343 344 345 345 346 346 347 348 348 349 350 351 352 353 354 353 352 353 354 354 353 354 353 353 353 353 353 355 356 358 360 1 2 3 3 2 2 3 3 3 3 4 4 5
211 213 215 216 217 217 218 219 222 225 230 235 239 242 246 249 251 252 253 258 264 270 275 280 284 288 292 295 299 302 305 308 311 314 316 319 321 324 326 328 331 333 337 339 341 342 343 344 345 345 345 347 347 347 347 349 350 352 352 352 351 351 352 352 352 352 352 352 352 352 353 354 355 357 359 1 1 2 2 2 2 2 2 3 3 3 3 4
213 215 217 218 219 220 221 223 225 229 233 238 242 246 250 253 256 257 258 262 266 271 277 281 285 289 292 296 299 302 305 307 309 311 314 316 319 321 324 326 329 332 334 337 338 340 341 342 343 344 344 344 345 345 345 347 349 350 350 350 351 351 350 351 351 351 351 351 351 351 352 354 355 356 358 359 0 1 1 1 1 2 2 3 3 3 2 3
214 217 219 220 221 222 224 226 229 232 236 241 245 249 253 257 260 261 263 267 270 274 279 283 286 290 293 296 299 302 304 306 308 310 313 315 317 320 323 325 328 330 332 335 336 337 339 340 341 342 342 342 343 344 344 346 347 348 349 350 351 350 349 349 350 350 350 351 350 350 352 353 354 355 356 358 359 360 0 1 1 1 2 2 2 2 2 2
Height
10716 10718 10720 10723 10727 10731 10734 10736 10738 10740 10741 10743 10745 10748 10750 10752 10753 10754 10755 10757 10757 10758 10758 10758 10758 10759 10759 10759 10759 10759 10758 10757 10755 10753 10751 10749 10747 10746 10744 10743 10741 10739 10738 10736 10734 10732 10730 10727 10723 10719 10715 10710 10706 10701 10697 10693 10689 10685 10681 10676 10672 10668 10663 10658 10652 10646 10640 10634 10629 10626 10620 10614 10610 10606 10597 10590 10585 10576 10572 10568 10557 10551 10546 10541 10536 10531 10528 10525
10714 10717 10720 10723 10727 10730 10733 10736 10737 10738 10740 10742 10744 10747 10749 10750 10752 10753 10754 10755 10756 10756 10757 10757 10757 10757 10757 10757 10757 10756 10755 10753 10751 10749 10747 10746 10744 10743 10741 10740 10738 10737 10735 10733 10731 10728 10725 10721 10717 10712 10708 10704 10699 10695 10691 10686 10682 10678 10674 10670 10666 10662 10656 10650 10645 10638 10632 10627 10622 10618 10613 10607 10600 10596 10589 10581 10575 10568 10563 10556 10545 10539 10532 10526 10521 10515 10511 10507
10714 10717 10720 10724 10727 10730 10732 10734 10735 10737 10739 10741 10743 10746 10748 10749 10751 10752 10753 10754 10755 10755 10755 10755 10756 10756 10755 10755 10754 10753 10751 10750 10748 10746 10745 10743 10742 10741 10739 10737 10735 10733 10731 10729 10727 10724 10720 10715 10710 10706 10702 10698 10693 10689 10685 10680 10676 10672 10668 10664 10660 10656 10650 10643 10637 10631 10626 10621 10616 10611 10605 10600 10593 10586 10579 10572 10564 10558 10554 10546 10537 10530 10520 10512 10507 10500 10496 10491
10713 10717 10720 10723 10726 10728 10730 10732 10734 10736 10738 10741 10743 10745 10747 10748 10750 10751 10752 10753 10754 10754 10754 10753 10754 10754 10753 10753 10751 10750 10748 10747 10745 10744 10743 10741 10740 10738 10736 10733 10732 10730 10728 10726 10723 10718 10714 10709 10705 10701 10696 10692 10687 10683 10679 10675 10671 10666 10662 10659 10655 10651 10645 10638 10632 10626 10621 10616 10611 10605 10597 10591 10586 10578 10569 10562 10555 10547 10542 10535 10527 10521 10510 10501 10493 10487 10481 10475
10712 10716 10719 10722 10725 10728 10729 10731 10733 10735 10738 10740 10742 10744 10746 10748 10749 10750 10751 10752 10753 10753 10751 10752 10752 10752 10751 10750 10748 10747 10746 10744 10743 10742 10740 10738 10736 10734 10732 10730 10728 10726 10724 10721 10717 10713 10708 10704 10699 10695 10691 10687 10683 10678 10674 10671 10667 10662 10658 10654 10650 10645 10639 10633 10626 10621 10615 10610 10604 10597 10590 10582 10577 10571 10560 10552 10545 10536 10529 10521 10514 10507 10500 10491 10482 10474 10467 10459
10710 10714 10718 10721 10724 10726 10728 10729 10732 10734 10737 10739 10741 10743 10745 10746 10747 10748 10750 10751 10752 10751 10749 10749 10750 10749 10748 10747 10745 10744 10743 10742 10741 10739 10737 10735 10733 10731 10729 10727 10725 10722 10720 10716 10711 10707 10703 10699 10694 10690 10686 10682 10678 10674 10670 10666 10663 10659 10655 10651 10646 10640 10633 10627 10620 10614 10608 10602 10596 10588 10582 10573 10565 10561 10552 10542 10533 10524 10515 10506 10499 10491 10484 10477 10469 10461 10452 10444
10708 10712 10717 10720 10722 10724 10726 10729 10731 10733 10735 10738 10740 10742 10743 10745 10746 10748 10749 10750 10750 10748 10747 10747 10747 10746 10745 10744 10743 10742 10741 10740 10738 10736 10734 10732 10730 10728 10725 10723 10721 10718 10714 10710 10706 10702 10698 10694 10690 10686 10682 10678 10675 10671 10666 10662 10658 10654 10650 10646 10641 10634 10627 10620 10614 10607 10600 10594 10587 10579 10573 10563 10554 10548 10540 10532 10522 10512 10503 10493 10484 10476 10468 10461 10453 10445 10436 10428
10707 10711 10715 10719 10721 10723 10726 10728 10730 10732 10734 10737 10738 10740 10742 10744 10746 10747 10748 10749 10748 10746 10745 10745 10744 10744 10743 10742 10741 10740 10739 10737 10735 10734 10732 10729 10727 10724 10722 10719 10716 10713 10709 10706 10702 10698 10694 10690 10687 10683 10679 10675 10672 10668 10664 10659 10654 10649 10645 10641 10636 10628 10620 10613 10607 10600 10592 10585 10578 10569 10563 10554 10545 10537 10528 10519 10511 10500 10490 10479 10469 10460 10452 10443 10435 10427 10419 10411
10705 10709 10714 10717 10719 10723 10725 10726 10728 10730 10732 10735 10737 10740 10742 10744 10746 10746 10747 10747 10746 10744 10743 10743 10742 10742 10741 10740 10739 10738 10736 10734 10733 10731 10729 10726 10723 10721 10718 10715 10712 10709 10705 10702 10698 10694 10691 10688 10684 10681 10676 10672 10668 10664 10660 10656 10651 10645 10640 10635 10630 10621 10612 10606 10598 10591 10584 10577 10569 10561 10553 10543 10534 10527 10518 10509 10500 10489 10477 10466 10455 10445 10435 10425 10416 10408 10400 10393
10703 10707 10712 10715 10718 10722 10723 10725 10727 10728 10730 10733 10737 10739 10742 10743 10745 10745 10745 10745 10743 10741 10741 10741 10740 10740 10739 10738 10736 10735 10733 10732 10731 10728 10725 10723 10720 10717 10714 10711 10708 10705 10702 10699 10696 10692 10689 10685 10682 10678 10674 10669 10665 10660 10655 10650 10645 10639 10633 10627 10623 10614 10604 10596 10589 10582 10576 10570 10562 10553 10545 10536 10526 10517 10508 10499 10489 10478 10465 10453 10442 10430 10419 10409 10399 10391 10383 10375
10703 10706 10710 10714 10717 10720 10722 10724 10726 10727 10729 10733 10736 10738 10741 10742 10743 10743 10744 10743 10740 10738 10739 10739 10738 10738 10737 10735 10734 10733 10732 10730 10728 10725 10722 10719 10717 10714 10711 10709 10706 10703 10700 10697 10694 10691 10687 10684 10680 10676 10671 10667 10662 10657 10651 10645 10639 10633 10627 10620 10614 10606 10596 10588 10582 10576 10569 10562 10554 10547 10539 10529 10518 10508 10497 10487 10477 10466 10454 10441 10429 10417 10405 10394 10384 10375 10367 10360
10702 10706 10710 10713 10716 10719 10721 10724 10725 10726 10729 10731 10734 10738 10740 10740 10741 10741 10741 10739 10737 10737 10737 10737 10736 10735 10734 10733 10732 10731 10730 10728 10725 10722 10719 10717 10714 10712 10709 10707 10704 10702 10699 10695 10693 10689 10685 10681 10677 10673 10668 10664 10658 10653 10647 10641 10634 10627 10619 10611 10604 10600 10594 10586 10578 10570 10562 10555 10547 10538 10530 10521 10509 10498 10487 10476 10466 10455 10443 10429 10416 10404 10392 10381 10371 10361 10353 10346
10701 10705 10709 10713 10716 10718 10720 10723 10724 10725 10727 10730 10734 10737 10738 10738 10738 10739 10737 10736 10736 10735 10735 10735 10735 10734 10733 10732 10731 10729 10727 10725 10722 10719 10717 10714 10712 10710 10707 10705 10703 10700 10697 10694 10691 10686 10682 10679 10675 10670 10665 10660 10655 10649 10643 10635 10628 10620 10613 10607 10602 10597 10591 10581 10571 10564 10555 10549 10541 10529 10519 10510 10499 10488 10476 10466 10454 10442 10429 10416 10403 10391 10379 10368 10358 10349 10341 10334
10701 10705 10709 10712 10715 10717 10719 10721 10722 10723 10727 10731 10734 10736 10736 10736 10736 10736 10735 10734 10734 10734 10734 10733 10733 10732 10731 10730 10728 10726 10724 10722 10719 10717 10715 10712 10710 10708 10706 10704 10701 10699 10696 10693 10689 10684 10680 10676 10672 10668 10663 10658 10652 10645 10638 10630 10623 10618 10612 10606 10601 10593 10587 10579 10568 10560 10551 10540 10532 10522 10510 10500 10491 10480 10468 10455 10441 10428 10415 10403 10391 10380 10369 10358 10348 10338 10330 10322
10702 10705 10708 10711 10713 10715 10717 10719 10721 10724 10728 10731 10733 10734 10735 10735 10735 10734 10733 10733 10732 10732 10732 10731 10731 10730 10730 10728 10725 10723 10721 10719 10717 10715 10713 10710 10709 10707 10705 10702 10700 10697 10694 10691 10687 10682 10677 10673 10669 10664 10659 10655 10649 10641 10634 10629 10625 10619 10612 10605 10598 10590 10584 10576 10566 10555 10546 10534 10523 10514 10504 10494 10484 10473 10460 10444 10430 10416 10403 10390 10379 10367 10357 10347 10338 10329 10321 10313
10703 10706 10708 10710 10712 10714 10716 10719 10722 10726 10728 10730 10732 10733 10733 10733 10733 10732 10731 10731 10730 10730 10729 10729 10730 10728 10727 10725 10723 10721 10719 10717 10715 10712 10710 10709 10707 10705 10703 10701 10698 10695 10692 10688 10684 10679 10674 10670 10666 10661 10656 10650 10643 10637 10632 10628 10623 10616 10610 10602 10595 10589 10580 10572 10561 10549 10539 10531 10520 10507 10497 10487 10474 10461 10448 10435 10422 10408 10394 10380 10367 10355 10344 10335 10327 10319 10311 10304
10703 10707 10710 10711 10712 10713 10716 10720 10723 10725 10727 10729 10730 10730 10730 10730 10730 10730 10729 10729 10728 10728 10728 10728 10728 10726 10724 10722 10721 10719 10717 10715 10713 10710 10709 10707 10706 10704 10702 10700 10697 10694 10690 10686 10682 10678 10674 10669 10664 10660 10653 10645 10638 10634 10631 10627 10622 10616 10608 10599 10589 10583 10576 10568 10558 10546 10535 10526 10517 10504 10491 10479 10466 10451 10440 10428 10416 10403 10389 10374 10357 10343 10332 10322 10314 10307 10301 10294
10702 10706 10709 10711 10712 10713 10716 10720 10722 10724 10726 10727 10728 10729 10729 10729 10728 10728 10727 10727 10726 10726 10727 10726 10725 10724 10722 10720 10719 10717 10715 10713 10711 10709 10707 10706 10705 10703 10701 10699 10696 10693 10689 10686 10682 10677 10672 10667 10662 10655 10648 10642 10639 10635 10631 10626 10621 10615 10607 10598 10587 10577 10570 10563 10555 10545 10533 10521 10514 10503 10487 10475 10463 10450 10440 10430 10417 10404 10389 10373 10354 10337 10323 10312 10302 10295 10289 10283
10702 10704 10706 10709 10711 10712 10715 10719 10721 10723 10725 10726 10727 10727 10727 10727 10726 10726 10726 10725 10725 10725 10725 10724 10723 10722 10720 10719 10717 10715 10713 10711 10710 10708 10706 10704 10703 10701 10700 10697 10694 10691 10688 10684 10679 10674 10668 10663 10657 10651 10647 10644 10641 10635 10628 10621 10615 10608 10601 10594 10584 10573 10564 10558 10551 10542 10533 10523 10513 10502 10487 10474 10464 10455 10445 10432 10418 10406 10392 10375 10357 10339 10324 10311 10299 10289 10280 10272
10701 10703 10705 10708 10710 10711 10715 10718 10721 10722 10724 10725 10726 10726 10725 10725 10725 10725 10724 10724 10724 10724 10723 10722 10721 10720 10718 10717 10715 10713 10712 10710 10708 10706 10705 10703 10702 10700 10698 10696 10694 10691 10686 10681 10676 10672 10667 10661 10655 10651 10648 10644 10638 10631 10623 10616 10610 10604 10596 10588 10580 10572 10563 10556 10548 10539 10531 10522 10510 10498 10487 10475 10467 10457 10443 10429 10417 10405 10390 10374 10357 10340 10324 10311 10298 10287 10276 10267
10701 10703 10706 10708 10710 10712 10715 10718 10720 10721 10723 10724 10724 10724 10724 10723 10723 10723 10723 10723 10723 10722 10721 10720 10719 10718 10717 10715 10713 10712 10710 10709 10707 10706 10704 10702 10701 10699 10697 10696 10692 10687 10683 10679 10675 10670 10665 10660 10655 10651 10646 10640 10634 10627 10620 10614 10608 10600 10591 10584 10578 10571 10562 10553 10546 10538 10528 10516 10505 10496 10486 10475 10465 10452 10437 10424 10413 10400 10384 10368 10351 10335 10320 10307 10295 10285 10275 10265
10701 10704 10706 10708 10710 10712 10714 10717 10719 10720 10721 10722 10722 10722 10722 10722 10722 10722 10722 10722 10721 10720 10720 10718 10717 10716 10715 10713 10712 10710 10709 10708 10707 10705 10703 10702 10700 10698 10696 10693 10689 10685 10681 10678 10674 10670 10665 10660 10655 10650 10644 10637 10630 10624 10618 10610 10603 10596 10589 10582 10576 10571 10563 10552 10542 10533 10522 10510 10502 10496 10489 10477 10460 10443 10432 10421 10407 10392 10377 10361 10345 10331 10318 10305 10292 10281 10270 10260
10701 10703 10706 10708 10710 10712 10714 10716 10718 10719 10720 10720 10720 10720 10720 10720 10720 10720 10720 10720 10720 10719 10718 10717 10716 10715 10713 10712 10710 10709 10708 10707 10706 10705 10703 10701 10699 10697 10694 10691 10687 10684 10680 10677 10673 10669 10664 10659 10654 10648 10641 10636 10630 10623 10615 10606 10598 10592 10587 10581 10574 10566 10560 10551 10541 10529 10519 10511 10502 10490 10480 10471 10457 10443 10431 10418 10401 10386 10371 10356 10342 10328 10315 10301 10288 10276 10265 10255
10700 10703 10706 10708 10711 10712 10714 10716 10717 10718 10718 10718 10719 10719 10719 10719 10719 10719 10719 10719 10718 10717 10716 10715 10714 10713 10712 10711 10709 10708 10707 10707 10706 10705 10703 10700 10698 10695 10692 10689 10686 10682 10679 10676 10672 10668 10663 10657 10652 10645 10639 10634 10628 10621 10612 10604 10597 10591 10585 10578 10569 10560 10551 10544 10535 10524 10517 10511 10500 10487 10473 10461 10454 10445 10431 10416 10400 10384 10367 10352 10340 10327 10313 10300 10286 10274 10262 10252
10700 10703 10706 10709 10711 10713 10714 10715 10716 10716 10717 10717 10717 10718 10718 10718 10718 10718 10718 10717 10716 10716 10715 10714 10713 10712 10711 10710 10709 10708 10707 10706 10705 10703 10701 10699 10697 10694 10691 10688 10685 10681 10678 10675 10671 10666 10661 10655 10649 10643 10638 10632 10626 10619 10611 10604 10596 10588 10580 10571 10564 10556 10547 10537 10528 10521 10515 10506 10496 10487 10476 10462 10452 10441 10427 10412 10397 10380 10364 10351 10338 10325 10312 10299 10285 10272 10259 10247
10701 10704 10707 10709 10711 10712 10713 10714 10715 10715 10716 10716 10716 10716 10716 10716 10717 10717 10716 10716 10715 10714 10713 10712 10712 10711 10710 10709 10708 10707 10706 10705 10703 10702 10700 10698 10696 10692 10689 10686 10684 10681 10677 10673 10669 10664 10658 10653 10648 10642 10636 10629 10623 10617 10611 10604 10595 10584 10576 10568 10559 10550 10541 10532 10525 10520 10513 10502 10493 10483 10473 10463 10451 10436 10421 10406 10391 10377 10364 10349 10335 10322 10309 10296 10282 10268 10254 10242
10701 10704 10706 10709 10711 10712 10713 10713 10714 10714 10715 10715 10715 10715 10715 10715 10715 10715 10715 10714 10714 10713 10712 10711 10711 10710 10709 10708 10707 10706 10705 10704 10702 10700 10698 10696 10694 10691 10688 10685 10682 10679 10676 10671 10666 10661 10656 10651 10646 10640 10634 10628 10622 10616 10611 10603 10594 10584 10574 10564 10556 10548 10540 10532 10526 10520 10510 10501 10493 10482 10469 10458 10445 10430 10416 10400 10384 10370 10356 10343 10331 10319 10307 10294 10279 10264 10251 10240
10701 10704 10706 10708 10710 10711 10712 10712 10713 10713 10714 10714 10714 10714 10714 10714 10714 10714 10714 10713 10712 10712 10711 10710 10710 10709 10708 10707 10706 10705 10704 10702 10701 10699 10697 10695 10692 10690 10687 10684 10681 10677 10673 10668 10663 10658 10654 10649 10644 10639 10633 10626 10620 10615 10609 10601 10593 10584 10573 10564 10556 10548 10540 10534 10527 10519 10510 10500 10489 10478 10466 10451 10436 10421 10405 10390 10376 10362 10349 10338 10326 10314 10301 10286 10272 10259 10248 10236
10701 10703 10706 10708 10709 10710 10711 10712 10712 10713 10713 10713 10713 10713 10713 10713 10713 10713 10712 10712 10711 10711 10710 10710 10709 10708 10707 10706 10705 10704 10703 10701 10699 10697 10695 10693 10691 10688 10686 10683 10680 10675 10670 10665 10661 10657 10652 10647 10642 10637 10631 10625 10618 10611 10604 10598 10591 10583 10575 10567 10557 10547 10539 10534 10527 10517 10506 10496 10484 10471 10457 10442 10427 10411 10396 10384 10373 10361 10350 10338 10324 10310 10295 10281 10269 10258 10246 10235
10701 10704 10706 10708 10709 10710 10710 10711 10711 10712 10712 10712 10712 10712 10712 10712 10712 10712 10711 10711 10710 10710 10709 10709 10708 10707 10707 10705 10704 10703 10702 10700 10698 10696 10694 10692 10690 10687 10684 10681 10676 10672 10667 10663 10659 10655 10651 10645 10640 10634 10629 10623 10616 10608 10602 10597 10590 10584 10577 10569 10558 10548 10540 10532 10525 10516 10505 10493 10479 10462 10449 10438 10424 10409 10396 10384 10372 10363 10353 10340 10325 10310 10297 10284 10273 10261 10248 10235
10702 10704 10706 10707 10708 10709 10710 10710 10711 10711 10711 10711 10711 10711 10711 10711 10711 10711 10710 10710 10709 10709 10709 10708 10707 10707 10706 10705 10703 10702 10701 10699 10697 10695 10693 10690 10687 10684 10680 10676 10673 10670 10667 10663 10659 10655 10650 10644 10639 10633 10627 10621 10615 10609 10602 10596 10589 10581 10574 10566 10558 10551 10542 10531 10521 10511 10499 10485 10470 10459 10450 10438 10421 10407 10396 10386 10375 10365 10352 10338 10326 10315 10303 10290 10276 10262 10249 10236
10702 10704 10705 10707 10708 10708 10709 10709 10710 10710 10710 10710 10711 10711 10710 10710 10710 10710 10709 10709 10709 10709 10708 10707 10707 10706 10705 10704 10703 10701 10699 10697 10695 10693 10690 10687 10684 10681 10678 10676 10673 10670 10667 10663 10658 10653 10648 10643 10638 10632 10626 10621 10615 10607 10600 10593 10586 10578 10571 10566 10561 10554 10545 10533 10519 10506 10493 10480 10468 10462 10450 10433 10418 10409 10399 10390 10379 10365 10350 10338 10328 10316 10301 10286 10271 10258 10245 10233
10702 10703 10705 10706 10707 10708 10708 10709 10709 10709 10709 10710 10710 10710 10710 10710 10709 10709 10709 10709 10709 10708 10707 10706 10706 10705 10704 10703 10701 10700 10698 10695 10693 10691 10688 10686 10683 10681 10678 10675 10671 10668 10664 10660 10655 10651 10646 10641 10636 10631 10624 10618 10612 10605 10597 10589 10581 10574 10567 10561 10554 10546 10536 10524 10512 10500 10490 10478 10468 10458 10444 10431 10421 10412 10401 10390 10376 10361 10349 10338 10323 10305 10289 10275 10262 10251 10241 10231
10701 10703 10704 10705 10706 10707 10707 10708 10708 10708 10709 10709 10709 10709 10709 10709 10708 10708 10708 10708 10708 10707 10707 10706 10705 10704 10703 10702 10700 10698 10696 10694 10692 10689 10687 10684 10682 10679 10676 10672 10668 10664 10661 10657 10653 10649 10643 10638 10633 10627 10620 10613 10606 10599 10592 10584 10576 10568 10559 10550 10541 10534 10523 10512 10503 10495 10486 10478 10467 10450 10434 10423 10415 10407 10399 10387 10373 10359 10345 10330 10314 10300 10287 10275 10263 10252 10242 10232
10701 10703 10704 10705 10705 10706 10706 10707 10707 10708 10708 10708 10708 10708 10708 10708 10708 10708 10708 10708 10707 10707 10706 10705 10704 10703 10702 10701 10699 10697 10695 10692 10690 10688 10685 10682 10680 10676 10673 10670 10666 10662 10658 10654 10650 10646 10640 10635 10629 10622 10616 10608 10601 10594 10587 10579 10570 10562 10553 10544 10536 10527 10519 10511 10502 10491 10480 10470 10459 10446 10432 10423 10418 10411 10399 10383 10367 10354 10340 10325 10312 10300 10289 10279 10268 10257 10245 10233
10701 10702 10703 10704 10704 10705 10705 10706 10706 10707 10707 10707 10708 10708 10708 10708 10707 10708 10708 10707 10707 10706 10705 10704 10704 10702 10701 10699 10697 10696 10693 10691 10688 10686 10683 10680 10677 10674 10671 10668 10664 10660 10656 10651 10647 10642 10638 10632 10626 10619 10613 10606 10598 10590 10582 10573 10565 10557 10550 10542 10532 10522 10516 10511 10501 10489 10477 10465 10455 10450 10444 10435 10425 10411 10393 10378 10366 10354 10343 10330 10316 10304 10293 10282 10271 10260 10248 10236
10700 10701 10702 10703 10703 10704 10704 10705 10706 10706 10706 10707 10707 10707 10707 10707 10707 10707 10707 10707 10706 10705 10704 10704 10703 10701 10700 10698 10696 10694 10692 10690 10687 10684 10682 10679 10675 10672 10669 10666 10662 10658 10653 10649 10644 10638 10633 10628 10622 10616 10609 10604 10597 10589 10580 10572 10563 10555 10546 10539 10531 10523 10515 10507 10498 10490 10482 10470 10457 10447 10440 10433 10421 10405 10392 10383 10373 10360 10346 10333 10321 10311 10300 10288 10275 10263 10251 10239
10699 10700 10701 10702 10702 10703 10704 10704 10705 10705 10706 10706 10706 10706 10706 10706 10707 10707 10707 10706 10705 10704 10703 10702 10701 10700 10698 10697 10695 10693 10691 10688 10686 10683 10680 10677 10674 10670 10667 10663 10659 10656 10651 10646 10641 10635 10630 10624 10619 10613 10606 10599 10593 10587 10581 10574 10565 10555 10546 10538 10530 10521 10510 10500 10493 10486 10478 10469 10459 10447 10435 10425 10414 10403 10395 10388 10377 10363 10349 10336 10325 10314 10302 10290 10279 10266 10254 10241
10699 10699 10700 10701 10701 10702 10703 10704 10704 10704 10705 10705 10705 10705 10706 10706 10706 10706 10706 10705 10704 10703 10702 10701 10700 10699 10697 10695 10693 10691 10689 10687 10684 10681 10678 10675 10672 10668 10665 10661 10657 10653 10649 10644 10638 10632 10626 10621 10615 10609 10603 10596 10589 10583 10577 10570 10563 10555 10546 10537 10527 10517 10507 10498 10490 10482 10471 10462 10456 10447 10435 10422 10411 10402 10396 10385 10370 10356 10344 10333 10323 10311 10300 10289 10278 10266 10253 10241
10698 10698 10699 10700 10701 10702 10703 10703 10704 10704 10704 10704 10705 10705 10705 10705 10706 10705 10705 10704 10703 10702 10701 10700 10699 10697 10696 10694 10692 10690 10687 10685 10682 10680 10677 10674 10670 10667 10663 10659 10655 10651 10646 10641 10636 10630 10624 10618 10612 10606 10599 10593 10586 10579 10571 10563 10556 10551 10543 10534 10525 10516 10506 10497 10487 10478 10469 10458 10449 10442 10434 10424 10413 10404 10392 10376 10360 10348 10339 10330 10319 10308 10298 10287 10276 10265 10252 10239
10697 10698 10699 10699 10700 10701 10702 10702 10703 10703 10704 10704 10704 10704 10705 10705 10705 10705 10704 10703 10702 10701 10700 10699 10698 10696 10694 10693 10691 10688 10686 10683 10681 10678 10675 10672 10668 10665 10661 10657 10653 10648 10644 10639 10635 10629 10623 10616 10610 10603 10596 10589 10582 10575 10569 10561 10553 10546 10539 10530 10521 10512 10503 10494 10484 10474 10466 10455 10444 10437 10432 10423 10412 10399 10384 10368 10357 10348 10340 10330 10320 10309 10298 10287 10276 10264 10251 10239
10696 10697 10698 10699 10700 10700 10701 10702 10702 10703 10703 10703 10704 10704 10704 10704 10704 10704 10703 10702 10701 10700 10699 10698 10696 10695 10693 10691 10689 10687 10684 10682 10679 10676 10673 10670 10666 10663 10659 10655 10651 10646 10642 10638 10633 10628 10622 10615 10609 10602 10595 10588 10581 10574 10568 10562 10554 10545 10538 10529 10520 10510 10501 10491 10481 10471 10464 10457 10445 10433 10424 10414 10403 10390 10378 10367 10358 10349 10339 10330 10320 10310 10299 10288 10276 10264 10251 10239
10696 10696 10697 10698 10699 10700 10700 10701 10701 10702 10702 10703 10703 10703 10703 10703 10703 10703 10702 10701 10700 10699 10698 10696 10695 10693 10692 10690 10687 10685 10683 10680 10677 10674 10671 10667 10664 10660 10656 10653 10648 10644 10639 10635 10631 10626 10622 10616 10610 10603 10596 10589 10583 10577 10569 10562 10555 10547 10538 10528 10518 10507 10498 10490 10481 10471 10463 10458 10451 10438 10424 10413 10402 10391 10380 10371 10361 10351 10341 10331 10321 10311 10300 10288 10275 10264 10251 10239
10695 10696 10697 10697 10698 10699 10699 10700 10700 10701 10702 10702 10702 10702 10702 10702 10702 10701 10701 10700 10698 10697 10696 10695 10694 10692 10690 10688 10686 10683 10681 10678 10675 10672 10668 10665 10661 10657 10654 10650 10645 10641 10637 10632 10627 10623 10618 10613 10608 10602 10596 10590 10584 10577 10569 10560 10552 10543 10533 10524 10514 10504 10497 10490 10483 10474 10463 10454 10447 10437 10424 10413 10404 10393 10383 10373 10363 10354 10343 10332 10322 10311 10300 10288 10276 10264 10251 10239
10695 10696 10696 10697 10697 10698 10698 10699 10699 10700 10700 10701 10701 10701 10701 10701 10701 10700 10699 10698 10697 10696 10695 10693 10692 10690 10688 10686 10684 10681 10679 10676 10673 10670 10666 10663 10659 10655 10651 10647 10642 10638 10633 10628 10623 10617 10612 10608 10602 10596 10590 10584 10577 10570 10562 10553 10544 10536 10528 10521 10513 10504 10496 10488 10481 10473 10463 10450 10441 10436 10430 10419 10407 10396 10385 10376 10367 10357 10346 10335 10323 10311 10300 10288 10277 10265 10252 10240
10694 10695 10696 10696 10697 10697 10698 10698 10699 10699 10700 10700 10700 10700 10700 10700 10699 10699 10698 10697 10696 10694 10693 10692 10690 10688 10686 10684 10682 10679 10677 10674 10671 10668 10664 10661 10657 10653 10649 10644 10640 10635 10630 10625 10619 10613 10608 10602 10597 10591 10584 10577 10570 10562 10555 10548 10540 10533 10526 10518 10512 10505 10496 10487 10478 10470 10461 10452 10442 10434 10428 10419 10410 10401 10392 10382 10371 10359 10348 10338 10326 10314 10302 10290 10279 10266 10253 10241
10694 10695 10695 10696 10696 10697 10697 10698 10698 10699 10699 10699 10699 10699 10698 10698 10698 10697 10696 10695 10694 10693 10691 10690 10688 10686 10685 10682 10680 10677 10674 10672 10669 10665 10662 10658 10655 10651 10647 10642 10638 10633 10628 10623 10617 10611 10605 10599 10593 10588 10582 10575 10567 10560 10553 10547 10539 10532 10524 10516 10510 10504 10496 10486 10477 10469 10461 10454 10443 10432 10423 10417 10410 10402 10393 10383 10371 10359 10347 10337 10327 10315 10303 10291 10279 10266 10254 10242
10694 10694 10695 10695 10696 10696 10697 10697 10697 10698 10698 10698 10698 10697 10697 10697 10696 10696 10695 10694 10692 10691 10689 10688 10686 10684 10682 10680 10678 10675 10672 10669 10666 10663 10660 10656 10652 10649 10644 10640 10636 10631 10626 10621 10616 10610 10604 10597 10590 10584 10579 10573 10566 10559 10551 10544 10538 10531 10523 10516 10510 10504 10497 10487 10479 10470 10461 10452 10444 10434 10425 10417 10409 10400 10390 10379 10367 10357 10345 10335 10325 10315 10303 10291 10279 10267 10255 10244
10693 10694 10694 10695 10695 10695 10696 10696 10696 10697 10697 10697 10696 10696 10696 10695 10695 10694 10693 10692 10691 10689 10688 10686 10684 10682 10680 10678 10675 10673 10670 10667 10664 10661 10657 10654 10650 10646 10642 10638 10634 10629 10625 10620 10614 10609 10603 10596 10589 10582 10576 10570 10563 10556 10550 10544 10537 10530 10522 10515 10509 10502 10496 10488 10480 10471 10462 10453 10445 10436 10426 10416 10406 10397 10386 10373 10363 10354 10345 10335 10325 10314 10303 10291 10279 10267 10256 10246
10693 10693 10694 10694 10694 10695 10695 10695 10695 10695 10695 10695 10695 10695 10694 10694 10693 10692 10691 10690 10689 10687 10685 10684 10682 10680 10677 10675 10673 10670 10667 10664 10661 10658 10655 10651 10648 10644 10640 10636 10632 10627 10623 10618 10613 10608 10602 10596 10589 10582 10575 10570 10564 10557 10551 10544 10537 10529 10523 10516 10508 10499 10492 10486 10478 10469 10462 10453 10444 10435 10426 10416 10404 10392 10382 10373 10364 10356 10347 10337 10325 10314 10304 10292 10279 10268 10258 10248
10692 10692 10693 10693 10693 10694 10694 10694 10694 10694 10694 10694 10693 10693 10692 10692 10691 10690 10689 10688 10686 10685 10683 10681 10679 10677 10675 10673 10670 10668 10665 10662 10659 10655 10652 10649 10645 10641 10637 10633 10629 10625 10620 10616 10611 10606 10600 10595 10589 10582 10576 10570 10565 10559 10552 10545 10537 10530 10524 10516 10506 10495 10488 10483 10476 10467 10459 10451 10442 10432 10423 10413 10403 10392 10384 10376 10367 10357 10348 10339 10328 10316 10304 10292 10282 10272 10261 10250
10691 10691 10692 10692 10692 10693 10693 10693 10693 10693 10692 10692 10692 10691 10691 10690 10689 10688 10687 10685 10684 10683 10681 10679 10677 10675 10672 10670 10667 10665 10662 10659 10656 10652 10649 10646 10642 10639 10635 10630 10626 10622 10617 10613 10608 10603 10598 10593 10588 10582 10575 10568 10562 10556 10549 10542 10536 10530 10523 10514 10505 10496 10487 10480 10474 10466 10456 10447 10438 10429 10420 10411 10402 10394 10385 10377 10367 10357 10347 10338 10328 10316 10303 10291 10282 10274 10263 10251